{"data":{"norad_id":66977,"intl_designator":"2025-288U","name":"STARLINK-35770","alt_names":[],"object_type":"PAYLOAD","status":"ACTIVE","operator":null,"country":"US","launch_date":"2025-12-08","launch_site_code":"AFETR","launch_vehicle":null,"mission":null,"orbit_class":"UNKNOWN","rcs_meters":null,"size_class":null,"mass_kg":null,"dimensions":null,"purposes":["comms"],"wikipedia_slug":null,"has_3d_model":false,"image_url":null,"decayed_at":null,"tle_current":{"epoch":"2026-05-25T04:23:48.827328Z","epoch_age_seconds":69522,"freshness":"FRESH","line1":"1 66977U 25288U   26145.18320402  .00015925  00000+0  58680-3 0  9999","line2":"2 66977  43.0009 311.6721 0002244 271.1978  88.8617 15.27589218 26982","mean_motion":15.27589218,"eccentricity":0.0002244,"inclination_deg":43.0009,"raan_deg":311.6721,"arg_perigee_deg":271.1978,"mean_anomaly_deg":88.8617,"bstar":0.0005868,"rev_number":2698,"period_min":94.26617987559,"perigee_km":481.4818502042,"apogee_km":484.56113813639,"semimajor_km":6861.1584941703,"source":"CELESTRAK","updated_at":"2026-05-25T13:38:21.425632Z"}}}